Location: Reutlingen
(48.4911°N, 9.2587°E)
Time: 11:32:05
(UTC+01:00)

ISS - Pass Details

Date: 06 January 2018
Orbit: 402 x 407 km, 51.6° (Epoch: 22 January)

Event Time Altitude Azimuth Distance (km) Brightness Sun altitude
Exits shadow 06:46:06 27° 305° (NW) 821 -2.9 -13.9°
Maximum altitude 06:47:32 47° 5° (N) 549 -3.3 -13.7°
Drops below altitude 10° 06:50:45 10° 81° (E) 1,471 0.0 -13.2°
Sets 06:52:53 0° 87° (E) 2,332 1.4 -12.8°
